CW1490 Weather Reports


Display with metric or nautical units.
time (UTC)temp
F
wind
direction
speed
MPH
gust
MPH
rain 1hr
in
rain 24hr
in
rain mn
in
humidity
%
barometer
mb
20170725084140 56 345 0.0 0.0 0.00 0.57 0.01 97 1016.3
20170725082639 56 345 0.0 0.0 0.00 0.57 0.01 97 1016.4
20170725081142 56 345 0.0 0.0 0.00 0.57 0.01 97 1016.1
20170725075644 56 345 0.0 0.0 0.00 0.57 0.01 97 1016.1
20170725074133 56 345 0.0 0.0 0.00 0.57 0.01 97 1016.0
20170725072637 56 345 0.0 0.0 0.00 0.57 0.01 97 1015.8
20170725071135 56 345 0.0 0.0 0.00 0.57 0.01 97 1015.7
20170725065631 56 345 0.0 0.0 0.00 0.57 0.01 97 1015.6
20170725064130 56 345 0.0 0.0 0.00 0.57 0.01 97 1015.5
20170725062632 56 345 0.0 2.0 0.00 0.57 0.01 97 1015.7
20170725061159 56 344 0.0 0.0 0.00 0.57 0.01 97 1015.7
20170725055630 55 343 1.0 3.0 0.01 0.57 0.01 96 1015.5
20170725054131 56 4 1.0 4.0 0.01 0.57 0.01 97 1015.5
20170725052627 56 16 0.0 2.0 0.01 0.57 0.01 97 1015.7
20170725051132 56 16 0.0 2.0 0.01 0.57 0.01 97 1015.6
20170725045626 56 16 0.0 0.0 0.00 0.56 0.00 97 1015.6
20170725044137 56 16 0.0 0.0 0.00 0.56 0.00 97 1015.6
20170725042627 56 16 0.0 0.0 0.00 0.56 0.00 97 1015.5
20170725041120 56 16 0.0 0.0 0.00 0.56 0.00 96 1015.7
20170725035618 56 16 0.0 1.0 0.00 0.56 0.56 96 1015.5
20170725034126 56 359 0.0 0.0 0.00 0.56 0.56 96 1015.2
20170725032629 56 301 0.0 0.0 0.00 0.56 0.56 96 1015.4
20170725031124 56 301 0.0 0.0 0.00 0.56 0.56 96 1015.4
20170725025614 56 301 0.0 0.0 0.00 0.56 0.56 96 1015.2
20170725024118 56 301 0.0 0.0 0.00 0.56 0.56 96 1014.9
20170725022620 56 347 0.0 0.0 0.00 0.56 0.56 96 1014.9
20170725021308 56 348 0.0 0.0 0.00 0.56 0.56 96 1014.6
20170725015617 56 320 0.0 3.0 0.00 0.56 0.56 96 1014.6
20170725014113 56 359 0.0 3.0 0.00 0.56 0.56 96 1014.5
20170725012607 56 4 2.0 5.0 0.00 0.56 0.56 96 1014.5
20170725011104 56 31 3.0 5.0 0.00 0.56 0.56 96 1014.5
20170725005603 56 349 1.0 4.0 0.00 0.56 0.56 96 1014.7
20170725004112 56 28 2.0 5.0 0.00 0.56 0.56 96 1014.4
20170725002601 56 4 3.0 8.0 0.00 0.56 0.56 96 1014.2
20170725001058 56 25 3.0 6.0 0.00 0.56 0.56 96 1014.0
20170724235600 56 25 3.0 11.0 0.01 0.56 0.56 96 1014.1
20170724234054 57 31 5.0 10.0 0.01 0.56 0.56 96 1014.0
20170724232554 57 349 4.0 6.0 0.01 0.56 0.56 96 1013.7
20170724231050 57 43 3.0 5.0 0.01 0.56 0.56 96 1013.5
20170724225554 58 4 0.0 3.0 0.01 0.56 0.56 96 1013.6
20170724224051 58 345 2.0 5.0 0.02 0.56 0.56 96 1013.3
20170724222550 58 345 1.0 3.0 0.02 0.56 0.56 96 1013.1
20170724221105 58 20 0.0 4.0 0.02 0.56 0.56 96 1013.3
20170724215549 59 354 2.0 5.0 0.01 0.55 0.55 96 1013.1
20170724214047 58 21 2.0 4.0 0.01 0.54 0.54 96 1012.8
20170724212554 59 354 0.0 3.0 0.01 0.54 0.54 96 1012.7
20170724211104 59 23 1.0 5.0 0.01 0.54 0.54 96 1012.6
20170724205548 59 25 2.0 4.0 0.02 0.54 0.54 96 1012.8
20170724204047 58 31 2.0 5.0 0.01 0.53 0.53 96 1012.8
20170724202546 58 49 2.0 5.0 0.03 0.53 0.53 95 1012.8
20170724201047 58 11 2.0 6.0 0.03 0.53 0.53 95 1012.9
20170724195542 58 41 3.0 7.0 0.02 0.52 0.52 95 1012.9
20170724194042 58 354 4.0 8.0 0.01 0.51 0.51 95 1012.9
20170724192545 58 25 2.0 6.0 0.00 0.50 0.50 94 1013.1
20170724191051 58 315 3.0 8.0 0.00 0.50 0.50 94 1013.0
20170724185756 58 354 1.0 3.0 0.00 0.50 0.50 94 1013.0
20170724184040 57 332 0.0 3.0 0.00 0.50 0.50 94 1013.2
20170724182602 57 43 4.0 8.0 0.02 0.50 0.50 94 1013.2
20170724181034 58 338 5.0 10.0 0.04 0.50 0.50 94 1013.2
20170724175539 58 20 4.0 10.0 0.04 0.50 0.50 94 1013.1
20170724174104 58 64 7.0 14.0 0.08 0.50 0.50 95 1013.3
20170724172538 58 338 2.0 4.0 0.10 0.48 0.48 95 1012.9
20170724171102 58 54 2.0 6.0 0.10 0.46 0.46 95 1013.0
20170724165529 58 343 0.0 5.0 0.13 0.46 0.46 95 1012.9
20170724164029 59 324 0.0 4.0 0.10 0.41 0.41 95 1012.7
20170724162527 58 35 1.0 3.0 0.10 0.38 0.38 95 1012.5
20170724161040 58 18 2.0 4.0 0.12 0.36 0.36 95 1012.7
20170724155526 59 10 0.0 2.0 0.11 0.33 0.33 95 1013.1
20170724154025 59 326 1.0 3.0 0.10 0.31 0.31 95 1013.2
20170724152526 58 20 1.0 6.0 0.09 0.28 0.28 94 1013.4
20170724151022 59 21 0.0 4.0 0.07 0.24 0.24 95 1013.5
20170724145521 58 91 1.0 5.0 0.06 0.22 0.22 95 1013.7
20170724144033 59 56 0.0 4.0 0.05 0.21 0.21 95 1013.8
20170724142520 59 4 0.0 4.0 0.04 0.19 0.19 96 1013.8
20170724141022 59 4 0.0 3.0 0.04 0.17 0.17 96 1013.6
20170724135519 59 35 1.0 3.0 0.05 0.16 0.16 96 1013.2
20170724134019 59 24 2.0 4.0 0.06 0.16 0.16 96 1012.9
20170724132517 58 17 0.0 3.0 0.05 0.15 0.15 96 1013.0
20170724131013 59 24 0.0 2.0 0.05 0.13 0.13 96 1013.0
20170724124008 59 4 0.0 2.0 0.06 0.10 0.10 96 1013.1
20170724122510 59 4 0.0 2.0 0.07 0.10 0.10 96 1013.1
20170724121006 59 30 0.0 2.0 0.05 0.08 0.08 95 1013.1
20170724115504 59 30 0.0 4.0 0.04 0.05 0.05 95 1013.2
20170724114101 59 39 0.0 2.0 0.04 0.04 0.04 95 1013.2
20170724112500 60 359 0.0 1.0 0.03 0.03 0.03 95 1013.3
20170724111001 59 359 0.0 2.0 0.03 0.03 0.03 94 1013.0
20170724105457 60 359 0.0 2.0 0.01 0.01 0.01 93 1013.1
20170724103952 60 359 0.0 1.0 0.00 0.00 0.00 92 1012.7
20170724102449 60 359 0.0 1.0 0.00 0.00 0.00 91 1012.5
20170724100952 60 359 1.0 4.0 0.00 0.00 0.00 90 1012.3
20170724095450 61 10 0.0 0.0 0.00 0.00 0.00 89 1012.3
20170724093945 61 8 0.0 0.0 0.00 0.00 0.00 89 1012.2
20170724092502 61 4 0.0 0.0 0.00 0.00 0.00 90 1012.0
20170724090946 61 315 0.0 0.0 0.00 0.00 0.00 91 1011.8
20170724085451 61 315 0.0 0.0 0.00 0.00 0.00 91 1011.6